User: anonymous   Login
Location: Linton
(52.0940°N, 0.2850°E)
Time: 18:26:15
(UTC+01:00)
Language:

ISS - Orbit

View from above orbital plane
View from above orbital plane
View from above satellite
View from above satellite

Ground track
Ground track

The orbit data is extracted from the following two-line orbital elements,

1 25544U 98067A   18202.86108773  .00016717  00000-0  10270-3 0  9022
2 25544  51.6403 205.8938 0004449 339.8396  20.2580 15.54040308  3907
Epoch (UTC): 21 July 2018 20:39:57
Eccentricity: 0.0004449
inclination: 51.6403°
perigee height: 402 km
apogee height: 408 km
right ascension of ascending node: 205.8938°
argument of perigee: 339.8396°
revolutions per day: 15.54040308
mean anomaly at epoch: 20.2580°
orbit number at epoch: 390

The dashed part of the orbit path shows where the satellite is in the earth's shadow,  

DLR